Time,TemperatureF,DewpointF,PressureIn,WindDirection,WindDirectionDegrees,WindSpeedMPH,WindSpeedGustMPH,Humidity,HourlyPrecipIn,Conditions,Clouds,dailyrainin,SoftwareType,DateUTC
2013-02-10 00:02:00,18.0,18.0,-100.00,NW,305,6.0,10.0,99,0.03,,,-99.99,,2013-02-10 00:02:00,
2013-02-10 00:11:00,18.0,18.0,-100.00,NW,305,7.0,9.0,99,0.01,,,-99.99,,2013-02-10 00:11:00,
2013-02-10 00:21:00,18.0,18.0,-100.00,WNW,295,6.0,9.0,99,0.03,,,-99.99,,2013-02-10 00:21:00,
2013-02-10 00:32:00,18.0,18.0,-100.00,WNW,295,5.0,11.0,99,0.04,,,-99.99,,2013-02-10 00:32:00,
2013-02-10 00:41:00,18.0,18.0,-100.00,WNW,295,7.0,11.0,99,0.06,,,-99.99,,2013-02-10 00:41:00,
2013-02-10 00:51:00,18.0,18.0,-100.00,WNW,285,6.0,9.0,99,0.04,,,-99.99,,2013-02-10 00:51:00,
2013-02-10 01:01:00,18.0,17.0,-100.00,WNW,295,7.0,9.0,99,0.04,,,-99.99,,2013-02-10 01:01:00,
2013-02-10 01:12:00,18.0,17.0,-100.00,WNW,290,7.0,9.0,99,0.03,,,-99.99,,2013-02-10 01:12:00,
2013-02-10 01:21:00,17.0,17.0,-100.00,WNW,290,8.0,10.0,99,0.03,,,-99.99,,2013-02-10 01:21:00,
2013-02-10 01:32:00,17.0,17.0,-100.00,WNW,285,7.0,9.0,99,0.04,,,-99.99,,2013-02-10 01:32:00,
2013-02-10 01:42:00,17.0,17.0,-100.00,WNW,285,7.0,9.0,99,0.04,,,-99.99,,2013-02-10 01:42:00,
2013-02-10 01:51:00,17.0,17.0,-100.00,WNW,295,6.0,9.0,99,0.04,,,-99.99,,2013-02-10 01:51:00,
2013-02-10 02:01:00,17.0,17.0,-100.00,WNW,290,7.0,10.0,99,0.03,,,-99.99,,2013-02-10 02:01:00,
2013-02-10 02:11:00,17.0,17.0,-100.00,WNW,285,7.0,10.0,99,0.04,,,-99.99,,2013-02-10 02:11:00,
2013-02-10 02:22:00,17.0,17.0,-100.00,WNW,285,8.0,11.0,99,0.03,,,-99.99,,2013-02-10 02:22:00,
2013-02-10 02:32:00,17.0,17.0,-100.00,WNW,285,7.0,11.0,99,0.03,,,-99.99,,2013-02-10 02:32:00,
2013-02-10 02:41:00,17.0,17.0,-100.00,West,265,8.0,11.0,99,0.04,,,-99.99,,2013-02-10 02:41:00,
2013-02-10 02:52:00,17.0,17.0,-100.00,West,270,9.0,11.0,99,0.06,,,-99.99,,2013-02-10 02:52:00,
2013-02-10 03:01:00,17.0,17.0,-100.00,West,280,9.0,12.0,99,0.04,,,-99.99,,2013-02-10 03:01:00,
2013-02-10 03:11:00,17.0,17.0,-100.00,West,270,9.0,12.0,99,0.03,,,-99.99,,2013-02-10 03:11:00,
2013-02-10 03:21:00,17.0,17.0,-100.00,West,275,9.0,13.0,99,0.03,,,-99.99,,2013-02-10 03:21:00,
2013-02-10 03:32:00,17.0,17.0,-100.00,West,270,9.0,12.0,99,0.04,,,-99.99,,2013-02-10 03:32:00,
2013-02-10 03:41:00,17.0,17.0,-100.00,West,275,11.0,14.0,99,0.01,,,-99.99,,2013-02-10 03:41:00,
2013-02-10 03:51:00,17.0,17.0,-100.00,West,270,10.0,13.0,99,0.01,,,-99.99,,2013-02-10 03:51:00,
2013-02-10 04:01:00,17.0,17.0,-100.00,West,270,11.0,14.0,99,0.01,,,-99.99,,2013-02-10 04:01:00,
2013-02-10 04:11:00,17.0,17.0,-100.00,West,275,12.0,14.0,99,0.03,,,-99.99,,2013-02-10 04:11:00,
2013-02-10 04:21:00,17.0,17.0,-100.00,WSW,250,10.0,15.0,99,0.01,,,-99.99,,2013-02-10 04:21:00,
2013-02-10 04:32:00,17.0,17.0,-100.00,West,275,11.0,14.0,99,0.00,,,-99.99,,2013-02-10 04:32:00,
2013-02-10 04:41:00,17.0,17.0,-100.00,West,265,9.0,13.0,99,0.01,,,-99.99,,2013-02-10 04:41:00,
2013-02-10 04:51:00,17.0,17.0,-100.00,West,270,9.0,12.0,99,0.04,,,-99.99,,2013-02-10 04:51:00,
2013-02-10 05:01:00,17.0,17.0,-100.00,WSW,245,9.0,12.0,99,0.07,,,-99.99,,2013-02-10 05:01:00,
2013-02-10 05:11:00,17.0,17.0,-100.00,West,270,7.0,12.0,99,0.07,,,-99.99,,2013-02-10 05:11:00,
2013-02-10 05:22:00,17.0,17.0,-100.00,West,270,9.0,12.0,99,0.03,,,-99.99,,2013-02-10 05:22:00,
2013-02-10 05:31:00,17.0,17.0,-100.00,WSW,245,11.0,12.0,99,0.01,,,-99.99,,2013-02-10 05:31:00,
2013-02-10 05:41:00,17.0,17.0,-100.00,WSW,250,9.0,14.0,99,0.01,,,-99.99,,2013-02-10 05:41:00,
2013-02-10 05:52:00,17.0,17.0,-100.00,West,260,10.0,13.0,99,0.01,,,-99.99,,2013-02-10 05:52:00,
2013-02-10 06:01:00,17.0,17.0,-100.00,West,265,10.0,14.0,99,0.01,,,-99.99,,2013-02-10 06:01:00,
2013-02-10 06:11:00,17.0,17.0,-100.00,WSW,240,11.0,12.0,99,0.01,,,-99.99,,2013-02-10 06:11:00,
2013-02-10 06:21:00,17.0,17.0,-100.00,West,275,9.0,12.0,99,0.04,,,-99.99,,2013-02-10 06:21:00,
2013-02-10 06:32:00,16.0,16.0,-100.00,WNW,285,9.0,15.0,99,0.01,,,-99.99,,2013-02-10 06:32:00,
2013-02-10 06:42:00,16.0,16.0,-100.00,WNW,285,8.0,13.0,99,0.03,,,-99.99,,2013-02-10 06:42:00,
2013-02-10 06:51:00,17.0,17.0,-100.00,WNW,285,7.0,12.0,99,0.04,,,-99.99,,2013-02-10 06:51:00,
2013-02-10 07:01:00,16.0,16.0,-100.00,WNW,285,11.0,13.0,99,0.03,,,-99.99,,2013-02-10 07:01:00,
2013-02-10 07:11:00,16.0,16.0,-100.00,WNW,285,11.0,13.0,99,0.04,,,-99.99,,2013-02-10 07:11:00,
2013-02-10 07:21:00,16.0,16.0,-100.00,WNW,285,9.0,14.0,99,0.06,,,-99.99,,2013-02-10 07:21:00,
2013-02-10 07:31:00,16.0,16.0,-100.00,WNW,290,9.0,11.0,99,0.06,,,-99.99,,2013-02-10 07:31:00,
2013-02-10 07:41:00,16.0,16.0,-100.00,West,280,6.0,11.0,99,0.03,,,-99.99,,2013-02-10 07:41:00,
2013-02-10 07:51:00,16.0,16.0,-100.00,West,275,9.0,11.0,99,0.06,,,-99.99,,2013-02-10 07:51:00,
2013-02-10 08:01:00,16.0,16.0,-100.00,West,270,7.0,11.0,99,0.06,,,-99.99,,2013-02-10 08:01:00,
2013-02-10 08:11:00,16.0,16.0,-100.00,West,275,8.0,11.0,99,0.08,,,-99.99,,2013-02-10 08:11:00,
2013-02-10 08:21:00,16.0,16.0,-100.00,West,280,7.0,11.0,99,0.04,,,-99.99,,2013-02-10 08:21:00,
2013-02-10 08:32:00,16.0,16.0,-100.00,WNW,285,8.0,10.0,99,0.04,,,-99.99,,2013-02-10 08:32:00,
2013-02-10 08:43:00,16.0,16.0,-100.00,WNW,285,6.0,11.0,99,0.04,,,-99.99,,2013-02-10 08:43:00,
2013-02-10 08:52:00,16.0,16.0,-100.00,WNW,285,9.0,12.0,99,0.04,,,-99.99,,2013-02-10 08:52:00,
2013-02-10 09:02:00,16.0,16.0,-100.00,WNW,290,8.0,12.0,99,0.04,,,-99.99,,2013-02-10 09:02:00,
2013-02-10 09:11:00,16.0,16.0,-100.00,WNW,285,7.0,10.0,99,0.01,,,-99.99,,2013-02-10 09:11:00,
2013-02-10 09:21:00,16.0,16.0,-100.00,WNW,285,7.0,10.0,99,0.03,,,-99.99,,2013-02-10 09:21:00,
2013-02-10 09:31:00,16.0,16.0,-100.00,West,280,7.0,10.0,99,0.03,,,-99.99,,2013-02-10 09:31:00,
2013-02-10 09:41:00,16.0,16.0,-100.00,West,275,6.0,9.0,99,0.04,,,-99.99,,2013-02-10 09:41:00,
2013-02-10 09:51:00,16.0,16.0,-100.00,West,280,7.0,11.0,99,0.01,,,-99.99,,2013-02-10 09:51:00,
2013-02-10 10:01:00,16.0,16.0,-100.00,WNW,290,7.0,10.0,99,0.03,,,-99.99,,2013-02-10 10:01:00,
2013-02-10 10:11:00,16.0,16.0,-100.00,WNW,290,6.0,9.0,99,0.03,,,-99.99,,2013-02-10 10:11:00,
2013-02-10 10:21:00,16.0,16.0,-100.00,WNW,285,6.0,8.0,99,0.01,,,-99.99,,2013-02-10 10:21:00,
2013-02-10 10:31:00,16.0,16.0,-100.00,West,270,7.0,10.0,99,0.01,,,-99.99,,2013-02-10 10:31:00,
2013-02-10 10:41:00,16.0,16.0,-100.00,West,270,10.0,14.0,99,0.03,,,-99.99,,2013-02-10 10:41:00,
2013-02-10 10:51:00,16.0,16.0,-100.00,West,270,7.0,14.0,99,0.03,,,-99.99,,2013-02-10 10:51:00,
2013-02-10 11:01:00,16.0,16.0,-100.00,West,280,12.0,15.0,99,0.06,,,-99.99,,2013-02-10 11:01:00,
2013-02-10 11:11:00,15.0,15.0,-100.00,West,275,10.0,16.0,99,0.03,,,-99.99,,2013-02-10 11:11:00,
2013-02-10 11:21:00,15.0,15.0,-100.00,West,280,9.0,12.0,99,0.03,,,-99.99,,2013-02-10 11:21:00,
2013-02-10 11:32:00,15.0,15.0,-100.00,West,280,8.0,12.0,99,0.03,,,-99.99,,2013-02-10 11:32:00,
2013-02-10 11:42:00,15.0,15.0,-100.00,WNW,295,10.0,13.0,99,0.01,,,-99.99,,2013-02-10 11:42:00,
2013-02-10 11:52:00,15.0,15.0,-100.00,WNW,300,8.0,14.0,99,0.01,,,-99.99,,2013-02-10 11:52:00,
2013-02-10 12:01:00,15.0,15.0,-100.00,WNW,295,9.0,15.0,99,0.01,,,-99.99,,2013-02-10 12:01:00,
2013-02-10 12:12:00,15.0,15.0,-100.00,WNW,295,10.0,12.0,99,0.01,,,-99.99,,2013-02-10 12:12:00,
2013-02-10 12:21:00,15.0,15.0,-100.00,WNW,285,11.0,14.0,99,0.01,,,-99.99,,2013-02-10 12:21:00,
2013-02-10 12:32:00,15.0,15.0,-100.00,West,280,9.0,12.0,99,0.01,,,-99.99,,2013-02-10 12:32:00,
2013-02-10 12:41:00,15.0,15.0,-100.00,WNW,285,9.0,12.0,99,0.01,,,-99.99,,2013-02-10 12:41:00,
2013-02-10 12:52:00,15.0,15.0,-100.00,West,280,9.0,12.0,99,0.01,,,-99.99,,2013-02-10 12:52:00,
2013-02-10 13:02:00,15.0,15.0,-100.00,WNW,285,9.0,13.0,99,0.01,,,-99.99,,2013-02-10 13:02:00,
2013-02-10 13:11:00,15.0,15.0,-100.00,WNW,290,7.0,13.0,99,0.01,,,-99.99,,2013-02-10 13:11:00,
2013-02-10 13:21:00,15.0,14.0,-100.00,WNW,285,9.0,11.0,99,0.00,,,-99.99,,2013-02-10 13:21:00,
2013-02-10 13:31:00,15.0,14.0,-100.00,WNW,290,9.0,12.0,99,0.04,,,-99.99,,2013-02-10 13:31:00,
2013-02-10 13:41:00,15.0,14.0,-100.00,West,280,9.0,12.0,99,0.06,,,-99.99,,2013-02-10 13:41:00,
2013-02-10 13:51:00,14.0,14.0,-100.00,WNW,285,8.0,10.0,99,0.06,,,-99.99,,2013-02-10 13:51:00,
2013-02-10 14:02:00,14.0,14.0,-100.00,West,280,8.0,11.0,99,0.01,,,-99.99,,2013-02-10 14:02:00,
2013-02-10 14:11:00,14.0,14.0,-100.00,West,280,9.0,12.0,99,0.01,,,-99.99,,2013-02-10 14:11:00,
2013-02-10 14:21:00,14.0,14.0,-100.00,WNW,285,7.0,12.0,99,0.01,,,-99.99,,2013-02-10 14:21:00,
2013-02-10 14:32:00,14.0,14.0,-100.00,West,280,7.0,11.0,99,0.01,,,-99.99,,2013-02-10 14:32:00,
2013-02-10 14:41:00,14.0,14.0,-100.00,West,275,7.0,12.0,99,0.00,,,-99.99,,2013-02-10 14:41:00,
2013-02-10 14:52:00,14.0,14.0,-100.00,West,275,7.0,17.0,99,0.03,,,-99.99,,2013-02-10 14:52:00,
2013-02-10 15:01:00,14.0,14.0,-100.00,West,275,8.0,13.0,99,0.00,,,-99.99,,2013-02-10 15:01:00,
2013-02-10 15:11:00,14.0,14.0,-100.00,West,275,8.0,12.0,99,0.00,,,-99.99,,2013-02-10 15:11:00,
2013-02-10 15:21:00,14.0,14.0,-100.00,West,275,6.0,14.0,99,0.00,,,-99.99,,2013-02-10 15:21:00,
2013-02-10 15:32:00,15.0,14.0,-100.00,West,275,7.0,11.0,99,0.00,,,-99.99,,2013-02-10 15:32:00,
2013-02-10 15:41:00,15.0,15.0,-100.00,West,270,9.0,13.0,99,0.00,,,-99.99,,2013-02-10 15:41:00,
2013-02-10 15:51:00,15.0,15.0,-100.00,West,270,9.0,16.0,99,0.00,,,-99.99,,2013-02-10 15:51:00,
2013-02-10 16:02:00,15.0,15.0,-100.00,West,270,11.0,15.0,99,0.00,,,-99.99,,2013-02-10 16:02:00,
2013-02-10 16:11:00,15.0,15.0,-100.00,West,275,7.0,16.0,99,0.00,,,-99.99,,2013-02-10 16:11:00,
2013-02-10 16:21:00,16.0,16.0,-100.00,West,275,7.0,11.0,99,0.00,,,-99.99,,2013-02-10 16:21:00,
2013-02-10 16:32:00,17.0,17.0,-100.00,West,275,6.0,9.0,99,0.00,,,-99.99,,2013-02-10 16:32:00,
2013-02-10 16:42:00,17.0,17.0,-100.00,WNW,290,9.0,10.0,99,0.00,,,-99.99,,2013-02-10 16:42:00,
2013-02-10 16:51:00,17.0,17.0,-100.00,West,275,6.0,10.0,99,0.00,,,-99.99,,2013-02-10 16:51:00,
2013-02-10 17:01:00,17.0,17.0,-100.00,WSW,240,4.0,9.0,98,0.00,,,-99.99,,2013-02-10 17:01:00,
2013-02-10 17:11:00,17.0,17.0,-100.00,WSW,240,7.0,10.0,97,0.00,,,-99.99,,2013-02-10 17:11:00,
2013-02-10 17:21:00,17.0,16.0,-100.00,WSW,240,7.0,12.0,97,0.01,,,-99.99,,2013-02-10 17:21:00,
2013-02-10 17:32:00,17.0,16.0,-100.00,West,270,11.0,13.0,97,0.01,,,-99.99,,2013-02-10 17:32:00,
2013-02-10 17:42:00,18.0,18.0,-100.00,West,280,7.0,12.0,97,0.00,,,-99.99,,2013-02-10 17:42:00,
2013-02-10 17:52:00,18.0,18.0,-100.00,West,280,6.0,10.0,97,0.00,,,-99.99,,2013-02-10 17:52:00,
2013-02-10 18:02:00,18.0,18.0,-100.00,WNW,285,7.0,11.0,97,0.01,,,-99.99,,2013-02-10 18:02:00,
2013-02-10 18:11:00,18.0,18.0,-100.00,WNW,285,7.0,9.0,97,0.03,,,-99.99,,2013-02-10 18:11:00,
2013-02-10 18:21:00,17.0,16.0,-100.00,NW,320,7.0,12.0,97,0.03,,,-99.99,,2013-02-10 18:21:00,
2013-02-10 18:32:00,16.0,16.0,-100.00,NNW,335,6.0,9.0,97,0.03,,,-99.99,,2013-02-10 18:32:00,
2013-02-10 18:42:00,17.0,17.0,-100.00,NW,305,4.0,7.0,98,0.03,,,-99.99,,2013-02-10 18:42:00,
2013-02-10 18:52:00,17.0,17.0,-100.00,NW,320,6.0,10.0,98,0.01,,,-99.99,,2013-02-10 18:52:00,
2013-02-10 19:01:00,17.0,17.0,-100.00,NW,315,6.0,9.0,98,0.04,,,-99.99,,2013-02-10 19:01:00,
2013-02-10 19:11:00,17.0,16.0,-100.00,NW,315,7.0,9.0,98,0.01,,,-99.99,,2013-02-10 19:11:00,
2013-02-10 19:21:00,16.0,16.0,-100.00,NW,325,7.0,10.0,98,0.00,,,-99.99,,2013-02-10 19:21:00,
2013-02-10 19:32:00,15.0,15.0,-100.00,North,5,4.0,9.0,97,0.00,,,-99.99,,2013-02-10 19:32:00,
2013-02-10 19:42:00,16.0,16.0,-100.00,North,5,6.0,7.0,98,0.00,,,-99.99,,2013-02-10 19:42:00,
2013-02-10 19:51:00,16.0,16.0,-100.00,North,10,4.0,9.0,97,0.03,,,-99.99,,2013-02-10 19:51:00,
2013-02-10 20:02:00,18.0,18.0,-100.00,NW,320,4.0,7.0,97,0.03,,,-99.99,,2013-02-10 20:02:00,
2013-02-10 20:11:00,19.0,19.0,-100.00,NW,325,4.0,6.0,97,0.01,,,-99.99,,2013-02-10 20:11:00,
2013-02-10 20:21:00,19.0,18.0,-100.00,NW,315,4.0,6.0,96,0.00,,,-99.99,,2013-02-10 20:21:00,
2013-02-10 20:32:00,18.0,18.0,-100.00,NW,325,6.0,7.0,96,0.00,,,-99.99,,2013-02-10 20:32:00,
2013-02-10 20:42:00,18.0,18.0,-100.00,NW,325,5.0,7.0,96,0.00,,,-99.99,,2013-02-10 20:42:00,
2013-02-10 20:52:00,20.0,19.0,-100.00,NW,325,5.0,7.0,96,0.00,,,-99.99,,2013-02-10 20:52:00,
2013-02-10 21:02:00,21.0,20.0,-100.00,NW,320,4.0,7.0,95,0.00,,,-99.99,,2013-02-10 21:02:00,
2013-02-10 21:11:00,20.0,18.0,-100.00,NW,325,5.0,7.0,94,0.00,,,-99.99,,2013-02-10 21:11:00,
2013-02-10 21:21:00,22.0,20.0,-100.00,WNW,285,6.0,9.0,93,0.00,,,-99.99,,2013-02-10 21:21:00,
2013-02-10 21:32:00,21.0,19.0,-100.00,WNW,285,7.0,10.0,92,0.00,,,-99.99,,2013-02-10 21:32:00,
2013-02-10 21:42:00,21.0,18.0,-100.00,West,280,6.0,9.0,91,0.00,,,-99.99,,2013-02-10 21:42:00,
2013-02-10 21:51:00,19.0,17.0,-100.00,WNW,295,6.0,9.0,91,0.00,,,-99.99,,2013-02-10 21:51:00,
2013-02-10 22:02:00,18.0,16.0,-100.00,NW,320,5.0,7.0,91,0.00,,,-99.99,,2013-02-10 22:02:00,
2013-02-10 22:11:00,20.0,18.0,-100.00,NW,310,4.0,6.0,91,0.00,,,-99.99,,2013-02-10 22:11:00,
2013-02-10 22:21:00,18.0,16.0,-100.00,NNW,330,7.0,8.0,91,0.00,,,-99.99,,2013-02-10 22:21:00,
2013-02-10 22:32:00,18.0,16.0,-100.00,NNW,330,6.0,7.0,92,0.00,,,-99.99,,2013-02-10 22:32:00,
2013-02-10 22:42:00,17.0,15.0,-100.00,NW,325,6.0,7.0,92,0.00,,,-99.99,,2013-02-10 22:42:00,
2013-02-10 22:52:00,16.0,15.0,-100.00,NW,320,6.0,7.0,93,0.01,,,-99.99,,2013-02-10 22:52:00,
2013-02-10 23:02:00,17.0,15.0,-100.00,WNW,295,7.0,9.0,93,0.00,,,-99.99,,2013-02-10 23:02:00,
2013-02-10 23:11:00,16.0,15.0,-100.00,West,270,6.0,10.0,93,0.00,,,-99.99,,2013-02-10 23:11:00,
2013-02-10 23:22:00,16.0,14.0,-100.00,West,280,9.0,11.0,93,0.01,,,-99.99,,2013-02-10 23:22:00,
2013-02-10 23:32:00,15.0,14.0,-100.00,West,275,7.0,10.0,94,0.00,,,-99.99,,2013-02-10 23:32:00,
2013-02-10 23:42:00,15.0,14.0,-100.00,WSW,255,11.0,13.0,96,0.00,,,-99.99,,2013-02-10 23:42:00,
2013-02-10 23:52:00,15.0,14.0,-100.00,WSW,255,7.0,12.0,96,0.00,,,-99.99,,2013-02-10 23:52:00,